Regional Weather Roundup
Issued by NWS

Home | Current Version | Previous Version | Text Only | Print | Product List | Glossary Off
Versions: 1 2 3 4 5 6 7 8 9 10 11 12 13 14 15 16 17 18 19 20 21 22 23 24 25 26 27 28 29 30 31 32 33 34 35 36 37 38 39 40 41 42 43 44 45 46 47 48 49 50

000
ASUS43 KLMK 232110
RWRKY
KENTUCKY REGIONAL WEATHER ROUNDUP
NATIONAL WEATHER SERVICE LOUISVILLE KY
500 PM EDT MON OCT 23 2017

NOTE "FAIR" INDICATES FEW OR NO CLOUDS BELOW 12,000 FEET
WITH NO SIGNIFICANT WEATHER AND/OR OBSTRUCTIONS TO VISIBILITY.

KYZ001>023-026-027-061>063-070>075-232200-
WESTERN AND SOUTH CENTRAL KENTUCKY

CITY           SKY/WX    TMP DP  RH WIND       PRES   REMARKS
PADUCAH        SUNNY     64  40  41 W9        29.84F
HENDERSON      CLOUDY    54  49  83 W10       29.81S
OWENSBORO      LGT RAIN  53  51  93 W16       29.79S FOG
HOPKINSVILLE   CLOUDY    57  45  65 SW13      29.85F
BOWLING GREEN  CLOUDY    57  51  80 W17G26    29.82R
GLASGOW        CLOUDY    56  51  85 W23       29.80R
$$

KYZ024-025-028>034-038-045-046-053-232200-
NORTH CENTRAL KENTUCKY

CITY           SKY/WX    TMP DP  RH WIND       PRES   REMARKS
LOUISVILLE/SDF CLOUDY    58  52  80 SW15G22   29.72S
LOUISVILLE/LOU CLOUDY    57  55  93 SW9       29.73S
FORT KNOX      CLOUDY    54  52  94 SW12      29.73S
$$

KYZ035>037-039>044-047>052-055>060-089>105-232200-
NORTHEAST KENTUCKY

CITY           SKY/WX    TMP DP  RH WIND       PRES   REMARKS
LEXINGTON      CLOUDY    60  55  83 SW12G23   29.72R
COVINGTON      CLOUDY    62  61  96 S9        29.66F
FRANKFORT      CLOUDY    59  54  83 W10G20    29.70R
$$

KYZ054-064>069-076>088-106>120-232200-
SOUTHEAST KENTUCKY

CITY           SKY/WX    TMP DP  RH WIND       PRES   REMARKS
JACKSON        CLOUDY    60  56  86 S3        29.72F
LONDON         LGT RAIN  57  54  89 W14G28    29.76R
SOMERSET       CLOUDY    57  57 100 W9        29.78S
MIDDLESBORO    LGT RAIN  64  57  79 SW6       29.76S
MONTICELLO     CLOUDY    58  55  90 W23       29.80R
$$





USA.gov is the U.S. government's official web portal to all federal, state and local government web resources and services.